Location: Newark
(49.9828°N, 3.1606°E)
Time: 13:32:16
(UTC+00:00)

Envisat - Pass Details

Date: 25 January 2020
Orbit: 764 x 766 km, 98.1° (Epoch: 24 February)

Event Time Altitude Azimuth Distance (km) Brightness Sun altitude
Rises 17:28:46 0° 166° (SSE) 3,222 6.3 -9.6°
Reaches altitude 10° 17:31:03 10° 167° (SSE) 2,300 5.5 -10.0°
Maximum altitude 17:36:08 83° 254° (WSW) 778 3.1 -10.8°
Drops below altitude 10° 17:41:16 10° 345° (NNW) 2,316 5.5 -11.5°
Sets 17:43:35 0° 346° (NNW) 3,247 6.2 -11.9°
